GW5236 Weather Reports


Display with metric or nautical units.
time (UTC)temp
F
wind
direction
speed
MPH
gust
MPH
rain 1hr
in
rain 24hr
in
rain mn
in
humidity
%
barometer
mb
20260510194515 62 5 3.0 7.0 0.00 0.00 0.00 49 1017.7
20260510193505 62 334 3.0 6.0 0.00 0.00 0.00 53 1017.7
20260510193033 62 274 2.0 8.0 0.00 0.00 0.00 52 1017.7
20260510192506 62 325 2.0 8.0 0.00 0.00 0.00 48 1017.7
20260510192008 62 344 3.0 8.0 0.00 0.00 0.00 49 1017.8
20260510191524 62 336 2.0 5.0 0.00 0.00 0.00 52 1017.9
20260510191010 62 360 2.0 4.0 0.00 0.00 0.00 54 1017.8
20260510190507 62 321 2.0 10.0 0.00 0.00 0.00 50 1017.8
20260510190022 63 24 3.0 10.0 0.00 0.00 0.00 53 1017.7
20260510185505 63 42 4.0 9.0 0.00 0.00 0.00 51 1017.6
20260510184508 62 289 3.0 11.0 0.00 0.00 0.00 52 1017.6
20260510184004 63 246 6.0 11.0 0.00 0.00 0.00 49 1017.6
20260510183504 63 334 2.0 8.0 0.00 0.00 0.00 49 1017.6
20260510183037 63 17 2.0 6.0 0.00 0.00 0.00 52 1017.5
20260510182502 63 65 2.0 6.0 0.00 0.00 0.00 55 1017.5
20260510182003 63 334 2.0 7.0 0.00 0.00 0.00 56 1017.6
20260510181520 63 13 2.0 7.0 0.00 0.00 0.00 54 1017.6
20260510181004 63 265 2.0 7.0 0.00 0.00 0.00 53 1017.6
20260510180503 63 15 3.0 7.0 0.00 0.00 0.00 56 1017.6
20260510180008 62 291 1.0 8.0 0.00 0.00 0.00 58 1017.5
20260510175503 62 342 3.0 10.0 0.00 0.00 0.00 57 1017.6
20260510175004 62 266 4.0 10.0 0.00 0.00 0.00 55 1017.6
20260510174509 61 323 2.0 9.0 0.00 0.00 0.00 61 1017.5
20260510174006 60 338 5.0 10.0 0.00 0.00 0.00 59 1017.3
20260510173014 61 304 3.0 9.0 0.00 0.00 0.00 57 1017.2
20260510172507 61 210 3.0 8.0 0.00 0.00 0.00 52 1017.3
20260510172010 61 288 3.0 12.0 0.00 0.00 0.00 55 1017.4
20260510171509 61 360 5.0 12.0 0.00 0.00 0.00 52 1017.2
20260510171003 62 35 4.0 12.0 0.00 0.00 0.00 60 1017.4
20260510170503 62 270 3.0 12.0 0.00 0.00 0.00 56 1017.4
20260510170004 62 343 2.0 8.0 0.00 0.00 0.00 61 1017.3
20260510165504 61 317 3.0 10.0 0.00 0.00 0.00 51 1017.4
20260510165004 62 360 5.0 9.0 0.00 0.00 0.00 51 1017.4
20260510164513 62 350 3.0 9.0 0.00 0.00 0.00 59 1017.5
20260510163504 61 317 3.0 6.0 0.00 0.00 0.00 58 1017.6
20260510163014 61 20 2.0 8.0 0.00 0.00 0.00 59 1017.4
20260510162504 61 34 2.0 8.0 0.00 0.00 0.00 58 1017.5
20260510162006 61 317 4.0 8.0 0.00 0.00 0.00 57 1017.4
20260510161519 61 24 4.0 9.0 0.00 0.00 0.00 53 1017.4
20260510161013 61 360 3.0 9.0 0.00 0.00 0.00 60 1017.4
20260510160005 61 315 3.0 6.0 0.00 0.00 0.00 61 1017.2
20260510155004 61 334 2.0 5.0 0.00 0.00 0.00 60 1017.2
20260510154506 61 328 2.0 6.0 0.00 0.00 0.00 63 1017.2
20260510154005 60 351 3.0 6.0 0.00 0.00 0.00 57 1017.1
20260510153504 60 11 3.0 5.0 0.00 0.00 0.00 56 1017.0
20260510153010 60 343 2.0 8.0 0.00 0.00 0.00 56 1017.0
20260510152504 60 313 3.0 8.0 0.00 0.00 0.00 54 1016.9
20260510152008 60 26 2.0 9.0 0.00 0.00 0.00 59 1016.8
20260510151515 60 287 4.0 9.0 0.00 0.00 0.00 55 1016.7
20260510151010 60 298 2.0 8.0 0.00 0.00 0.00 57 1016.6
20260510150509 60 346 2.0 8.0 0.00 0.00 0.00 60 1016.7
20260510150022 59 342 2.0 8.0 0.00 0.00 0.00 61 1016.6
20260510144518 58 30 3.0 8.0 0.00 0.00 0.00 60 1016.4
20260510143507 58 43 5.0 9.0 0.00 0.00 0.00 55 1016.3
20260510143010 58 57 2.0 9.0 0.00 0.00 0.00 61 1016.3
20260510142505 57 26 3.0 9.0 0.00 0.00 0.00 57 1016.3
20260510142006 58 9 3.0 9.0 0.00 0.00 0.00 61 1016.1
20260510141515 57 5 3.0 9.0 0.00 0.00 0.00 61 1015.9
20260510141006 57 349 3.0 9.0 0.00 0.00 0.00 59 1015.9
20260510140507 57 329 2.0 10.0 0.00 0.00 0.00 60 1015.8
20260510140021 56 43 4.0 10.0 0.00 0.00 0.00 59 1015.7
20260510135510 56 323 4.0 8.0 0.00 0.00 0.00 58 1015.7
20260510135010 56 43 4.0 8.0 0.00 0.00 0.00 60 1015.7
20260510134525 56 344 3.0 7.0 0.00 0.00 0.00 59 1015.9
20260510134004 56 52 3.0 9.0 0.00 0.00 0.00 58 1015.7
20260510133504 56 335 4.0 9.0 0.00 0.00 0.00 60 1015.6
20260510133012 55 5 2.0 5.0 0.00 0.00 0.00 63 1015.4
20260510132505 55 342 1.0 6.0 0.00 0.00 0.00 64 1015.3
20260510132006 55 344 2.0 7.0 0.00 0.00 0.00 64 1015.3
20260510131514 54 360 3.0 7.0 0.00 0.00 0.00 63 1015.2
20260510131007 54 350 2.0 8.0 0.00 0.00 0.00 63 1015.2
20260510130506 54 298 3.0 8.0 0.00 0.00 0.00 62 1015.3
20260510130020 55 348 3.0 8.0 0.00 0.00 0.00 63 1015.3
20260510125508 55 12 1.0 7.0 0.00 0.00 0.00 65 1015.3
20260510125010 54 323 3.0 11.0 0.00 0.00 0.00 63 1015.1
20260510124522 54 14 2.0 11.0 0.00 0.00 0.00 61 1015.1
20260510124012 53 349 1.0 8.0 0.00 0.00 0.00 64 1015.0
20260510123511 53 48 2.0 6.0 0.00 0.00 0.00 65 1015.0
20260510123005 53 30 2.0 7.0 0.00 0.00 0.00 67 1014.9
20260510122505 52 300 2.0 7.0 0.00 0.00 0.00 65 1014.8
20260510122006 52 331 1.0 4.0 0.00 0.00 0.00 66 1014.7
20260510121510 52 329 0.0 8.0 0.00 0.00 0.00 67 1014.7
20260510121007 52 350 1.0 8.0 0.00 0.00 0.00 66 1014.5
20260510120507 52 340 2.0 8.0 0.00 0.00 0.00 69 1014.4
20260510120026 52 309 2.0 6.0 0.00 0.00 0.00 68 1014.2
20260510115507 52 315 2.0 6.0 0.00 0.00 0.00 68 1014.2
20260510115008 52 351 1.0 4.0 0.00 0.00 0.00 71 1014.2
20260510114524 52 5 2.0 4.0 0.00 0.00 0.00 71 1014.2
20260510114010 52 352 2.0 4.0 0.00 0.00 0.00 72 1014.2
20260510113508 52 348 2.0 4.0 0.00 0.00 0.00 72 1014.1
20260510113023 52 352 1.0 6.0 0.00 0.00 0.00 73 1014.0
20260510112510 52 352 2.0 6.0 0.00 0.00 0.00 72 1013.9
20260510112010 52 5 1.0 4.0 0.00 0.00 0.00 74 1013.8
20260510111510 52 9 1.0 4.0 0.00 0.00 0.00 76 1013.7
20260510111003 52 349 2.0 8.0 0.00 0.00 0.00 74 1013.7
20260510110505 52 26 1.0 8.0 0.00 0.00 0.00 76 1013.7
20260510110017 52 348 1.0 2.0 0.00 0.00 0.00 76 1013.6
20260510105506 53 276 1.0 3.0 0.00 0.00 0.00 77 1013.6
20260510105008 53 344 1.0 3.0 0.00 0.00 0.00 77 1013.4
20260510104521 53 352 0.0 3.0 0.00 0.00 0.00 77 1013.2
20260510104006 53 5 1.0 4.0 0.00 0.00 0.00 77 1013.1
20260510103507 53 342 1.0 4.0 0.00 0.00 0.00 77 1012.8
20260510103023 53 15 2.0 5.0 0.00 0.00 0.00 76 1012.7
20260510102509 53 343 1.0 5.0 0.00 0.00 0.00 75 1013.0
20260510102012 54 348 2.0 5.0 0.00 0.00 0.00 75 1012.8
20260510101525 54 342 1.0 3.0 0.00 0.00 0.00 75 1012.8
20260510101010 54 340 1.0 3.0 0.00 0.00 0.00 74 1012.8
20260510100504 54 284 0.0 2.0 0.00 0.00 0.00 73 1012.7
20260510100016 55 313 0.0 5.0 0.00 0.00 0.00 72 1012.7
20260510095504 55 348 2.0 5.0 0.00 0.00 0.00 71 1012.4
20260510095004 55 306 0.0 3.0 0.00 0.00 0.00 70 1012.7
20260510094519 55 306 1.0 4.0 0.00 0.00 0.00 69 1012.6
20260510094008 55 311 1.0 4.0 0.00 0.00 0.00 69 1012.2
20260510093024 55 13 1.0 7.0 0.00 0.00 0.00 68 1012.0
20260510092510 55 327 0.0 7.0 0.00 0.00 0.00 68 1011.9
20260510092002 55 21 1.0 5.0 0.00 0.00 0.00 68 1012.0
20260510091511 55 317 1.0 4.0 0.00 0.00 0.00 67 1011.9
20260510091004 56 9 1.0 4.0 0.00 0.00 0.00 66 1011.9
20260510090504 56 352 1.0 6.0 0.00 0.00 0.00 66 1011.8
20260510090011 56 5 2.0 6.0 0.00 0.00 0.00 66 1011.7
20260510085504 56 231 2.0 5.0 0.00 0.00 0.00 66 1011.6
20260510085004 56 343 2.0 6.0 0.00 0.00 0.00 65 1011.5
20260510084011 56 325 1.0 4.0 0.00 0.00 0.00 67 1011.3
20260510083508 56 347 2.0 4.0 0.00 0.00 0.00 67 1011.4
20260510082510 57 342 1.0 7.0 0.00 0.00 0.00 67 1011.1
20260510081005 57 288 1.0 6.0 0.00 0.00 0.00 67 1010.7
20260510080504 57 288 2.0 5.0 0.00 0.00 0.00 68 1010.7
20260510080010 57 311 2.0 5.0 0.00 0.00 0.00 68 1010.7
20260510075504 57 16 2.0 5.0 0.00 0.00 0.00 69 1010.7
20260510075004 57 313 2.0 5.0 0.00 0.00 0.00 69 1010.6
20260510074520 58 352 2.0 5.0 0.00 0.00 0.00 69 1010.5
20260510074012 58 325 1.0 4.0 0.00 0.00 0.00 69 1010.5
20260510073504 58 297 1.0 6.0 0.00 0.00 0.00 70 1010.5
20260510073025 58 292 1.0 6.0 0.00 0.00 0.00 70 1010.6
20260510072506 58 294 1.0 7.0 0.00 0.00 0.00 72 1010.5
20260510072013 58 261 2.0 7.0 0.00 0.00 0.00 72 1010.5
20260510071524 58 267 1.0 4.0 0.00 0.00 0.00 75 1010.6
20260510071009 58 298 2.0 7.0 0.00 0.00 0.00 75 1010.6
20260510070507 58 256 2.0 7.0 0.00 0.00 0.00 77 1010.6
20260510070026 58 238 1.0 3.0 0.00 0.00 0.00 76 1010.7
20260510065504 58 238 0.0 3.0 0.00 0.01 0.00 75 1010.5
20260510065007 58 252 0.0 3.0 0.00 0.01 0.00 75 1010.4
20260510064004 58 244 1.0 4.0 0.00 0.01 0.00 75 1010.3
20260510063507 58 280 0.0 2.0 0.00 0.01 0.00 75 1010.3
20260510063027 58 257 1.0 3.0 0.00 0.01 0.00 74 1010.3
20260510062511 59 261 0.0 4.0 0.00 0.01 0.00 74 1010.3
20260510062008 59 276 1.0 4.0 0.00 0.02 0.00 74 1010.3
20260510061525 59 284 2.0 4.0 0.00 0.03 0.00 73 1010.3
20260510061008 60 276 1.0 4.0 0.00 0.03 0.00 72 1010.2
20260510060510 60 215 1.0 5.0 0.00 0.03 0.00 72 1010.2
20260510060025 60 200 2.0 8.0 0.00 0.03 0.00 72 1010.2
20260510055507 61 277 3.0 9.0 0.00 0.03 0.00 72 1010.1
20260510055009 61 194 2.0 8.0 0.00 0.03 0.00 72 1010.2
20260510054007 62 180 3.0 12.0 0.00 0.03 0.00 72 1010.2
20260510053507 62 159 5.0 12.0 0.00 0.03 0.00 71 1010.1
20260510052507 62 205 3.0 15.0 0.00 0.03 0.00 71 1010.1
20260510052008 63 212 2.0 15.0 0.00 0.03 0.00 71 1010.1
20260510051521 63 360 2.0 9.0 0.00 0.03 0.00 71 1010.0
20260510051008 62 152 3.0 11.0 0.00 0.03 0.00 71 1009.9
20260510050509 62 297 4.0 10.0 0.00 0.03 0.00 72 1009.9
20260510050023 62 280 2.0 4.0 0.00 0.03 0.00 73 1009.8
20260510045510 62 269 2.0 8.0 0.00 0.03 0.00 74 1009.8
20260510045011 62 204 2.0 8.0 0.00 0.03 0.00 74 1009.7
20260510044524 61 242 2.0 8.0 0.00 0.03 0.00 75 1009.5
20260510044012 61 345 2.0 6.0 0.00 0.03 0.00 75 1009.4
20260510043510 61 266 1.0 5.0 0.00 0.03 0.00 76 1009.5
20260510042506 61 172 1.0 3.0 0.00 0.03 0.00 76 1009.3
20260510041521 62 196 0.0 3.0 0.00 0.03 0.00 74 1009.2
20260510041009 62 287 0.0 3.0 0.00 0.03 0.00 73 1009.1
20260510040509 62 183 1.0 4.0 0.00 0.03 0.00 72 1009.1
20260510040027 62 227 1.0 5.0 0.00 0.03 0.00 71 1009.2
20260510035508 62 287 1.0 5.0 0.00 0.03 0.03 71 1009.1
20260510035011 62 232 1.0 5.0 0.00 0.03 0.03 71 1009.1
20260510034534 62 163 1.0 6.0 0.00 0.03 0.03 71 1009.1
20260510034009 62 194 1.0 6.0 0.00 0.03 0.03 71 1009.0
20260510033512 62 169 1.0 5.0 0.00 0.03 0.03 70 1008.9
20260510033030 62 253 2.0 4.0 0.00 0.03 0.03 70 1008.9
20260510032509 62 196 1.0 3.0 0.00 0.04 0.03 70 1009.0
20260510031531 62 176 2.0 5.0 0.00 0.04 0.03 70 1008.8
20260510031006 62 189 0.0 3.0 0.00 0.04 0.03 70 1008.8
20260510025511 62 208 2.0 4.0 0.00 0.04 0.03 69 1008.8
20260510025009 62 193 2.0 4.0 0.00 0.05 0.03 69 1008.8
20260510024526 62 190 1.0 4.0 0.00 0.05 0.03 69 1008.8
20260510024013 62 200 2.0 3.0 0.00 0.05 0.03 69 1008.8
20260510023508 62 206 1.0 3.0 0.00 0.05 0.03 68 1008.8
20260510023028 62 196 0.0 2.0 0.00 0.05 0.03 68 1008.7
20260510022511 63 188 1.0 2.0 0.00 0.05 0.03 68 1008.6
20260510022009 63 219 0.0 2.0 0.00 0.05 0.03 68 1008.5
20260510021535 63 184 0.0 4.0 0.00 0.05 0.03 67 1008.5
20260510021012 63 204 0.0 4.0 0.00 0.05 0.03 67 1008.4
20260510020020 64 190 3.0 5.0 0.00 0.05 0.03 66 1008.3
20260510014507 64 158 1.0 5.0 0.00 0.05 0.03 65 1008.0
20260510013006 65 205 0.0 6.0 0.00 0.05 0.03 64 1007.8
20260510011513 66 199 2.0 7.0 0.00 0.06 0.03 62 1007.6
20260510011007 66 215 2.0 7.0 0.00 0.06 0.03 62 1007.5
20260510010501 66 159 2.0 9.0 0.00 0.06 0.03 61 1007.6
20260510010005 66 200 1.0 9.0 0.00 0.06 0.03 60 1007.5
20260510005500 67 175 3.0 8.0 0.00 0.06 0.03 60 1007.5
20260510005000 67 217 3.0 10.0 0.00 0.06 0.03 59 1007.5
20260510004503 67 281 2.0 12.0 0.00 0.06 0.03 59 1007.4
20260510004007 67 196 4.0 12.0 0.00 0.06 0.03 59 1007.2
20260510003503 67 186 4.0 7.0 0.00 0.06 0.03 59 1007.3
20260510003007 67 208 3.0 7.0 0.00 0.06 0.03 59 1007.3
20260510001004 68 160 2.0 7.0 0.00 0.06 0.03 58 1007.0
20260510000018 68 193 3.0 10.0 0.00 0.06 0.03 57 1007.1
20260509235502 68 169 3.0 10.0 0.00 0.06 0.03 57 1006.9
20260509235001 68 210 3.0 8.0 0.00 0.06 0.03 57 1006.9
20260509234504 69 171 3.0 8.0 0.00 0.06 0.03 57 1006.8
20260509234004 69 196 3.0 11.0 0.00 0.06 0.03 56 1006.8
20260509233503 69 205 3.0 11.0 0.00 0.06 0.03 55 1006.8
20260509233003 69 168 2.0 20.0 0.00 0.06 0.03 55 1006.7
20260509232503 69 187 6.0 20.0 0.00 0.06 0.03 55 1006.8
20260509232003 70 188 5.0 12.0 0.00 0.06 0.03 54 1006.7
20260509231510 70 172 4.0 12.0 0.00 0.06 0.03 54 1006.7
20260509230014 71 240 5.0 15.0 0.00 0.06 0.03 51 1006.7
20260509225004 71 184 7.0 18.0 0.00 0.06 0.03 51 1006.7
20260509224504 71 271 7.0 15.0 0.00 0.06 0.03 51 1006.7
20260509224003 71 212 8.0 14.0 0.00 0.06 0.03 49 1006.6
20260509223503 72 211 5.0 14.0 0.00 0.06 0.03 50 1006.6
20260509223003 72 192 5.0 14.0 0.00 0.06 0.03 50 1006.4
20260509222004 72 259 6.0 18.0 0.00 0.06 0.03 50 1006.4
20260509221507 72 132 4.0 18.0 0.00 0.06 0.03 50 1006.4
20260509221003 72 194 6.0 16.0 0.00 0.06 0.03 49 1006.3
20260509220009 72 211 4.0 14.0 0.00 0.06 0.03 51 1006.2
20260509214517 72 150 6.0 15.0 0.00 0.06 0.03 50 1006.1
20260509214011 72 243 5.0 15.0 0.00 0.06 0.03 52 1006.2
20260509213004 72 196 6.0 14.0 0.00 0.06 0.03 54 1006.2
20260509212503 72 162 5.0 17.0 0.00 0.06 0.03 51 1006.3
20260509212003 72 221 6.0 17.0 0.00 0.06 0.03 53 1006.4
20260509211508 72 158 6.0 17.0 0.00 0.06 0.03 54 1006.4
20260509210012 72 181 8.0 16.0 0.00 0.06 0.03 54 1006.6
20260509205005 72 174 5.0 12.0 0.00 0.06 0.03 53 1006.4
20260509204533 72 159 5.0 18.0 0.00 0.06 0.03 55 1006.4
20260509204008 71 146 6.0 18.0 0.00 0.06 0.03 57 1006.5
20260509203508 71 167 6.0 15.0 0.00 0.06 0.03 56 1006.6
20260509203019 71 196 8.0 15.0 0.00 0.06 0.03 57 1006.6
20260509202006 71 196 5.0 17.0 0.00 0.06 0.03 57 1006.7
20260509201504 71 165 6.0 17.0 0.00 0.06 0.03 57 1006.7
20260509201003 71 114 5.0 15.0 0.00 0.06 0.03 57 1006.8
20260509200503 71 196 6.0 13.0 0.00 0.06 0.03 57 1007.0
20260509200008 71 229 6.0 13.0 0.00 0.06 0.03 59 1007.0
20260509195502 71 196 6.0 14.0 0.00 0.06 0.03 58 1007.1